Location: Les Jeannots
(43.2262°N, 5.5774°E)
Time: 02:54:56
(UTC+00:00)

Spot 4 - Pass Details

Date: 05 July 2020
Orbit: 704 x 723 km, 98.3° (Epoch: 04 August)

Event Time Altitude Azimuth Distance (km) Brightness Sun altitude
Exits shadow 22:59:06 51° 228° (SW) 885 4.1 -23.4°
Maximum altitude 22:59:44 56° 259° (W) 843 4.1 -23.4°
Drops below altitude 10° 23:04:27 10° 338° (NNW) 2,186 7.4 -23.5°
Sets 23:06:45 0° 343° (NNW) 3,107 8.6 -23.6°
